Location: C�mpuri de-Sus
(45.9500°N, 22.5500°E)
Time: 04:17:14
(UTC+00:00)

SL-16 R/B - Pass Details

Date: 24 October 2021
Orbit: 842 x 846 km, 71.0° (Epoch: 04 December)

Event Time Altitude Azimuth Distance (km) Brightness Sun altitude
Rises 17:53:15 0° 237° (WSW) 3,392 6.0 -25.8°
Reaches altitude 10° 17:55:58 10° 247° (WSW) 2,462 5.3 -26.3°
Maximum altitude 18:00:55 31° 309° (NW) 1,457 3.9 -27.1°
Drops below altitude 10° 18:05:55 10° 10° (N) 2,476 4.6 -28.0°
Enters shadow 18:07:44 - 18° (NNE) 3,086 5.1 -28.3°
